[[{"header":{"parameterUnit":"m.s-1","parameterCategory":1,"la1":30.2992,"la2":30.254,"lo1":-89.0895,"lo2":-89.0443,"dy":0.0025,"dx":0.0025,"nx":19,"ny":19,"refTime":"2026-04-17T21:00:00:Z","depth":0,"parameterNumber":2,"parameterNumberName":"U-component_of_WINDS"},"data":[0,0,0,-0.5189,-0.5187,-0.51,-0.51,-0.5001,-0.5,0,0,0,0,0,0,0,0,0,0,0,-0.5223,-0.5223,-0.5189,-0.5187,-0.51,-0.51,-0.5001,-0.5,0,0,0,0,0,0,0,0,0,0,0,-0.5223,-0.5223,-0.5222,-0.5186,-0.51,-0.51,-0.5001,-0.5062,0,0,0,0,0,0,0,0,0,0,-0.5144,-0.5184,-0.5223,-0.5222,-0.5186,-0.51,-0.51,-0.5065,-0.5058,-0.5046,0,-0.5038,0,-0.5018,-0.4994,-0.4994,0,0,0,-0.518,-0.519,-0.5159,-0.5222,-0.5185,-0.51,-0.5137,-0.5061,-0.5054,-0.5037,-0.5037,-0.5033,-0.5016,-0.4994,-0.4993,-0.495,-0.495,0,0,-0.5185,-0.5211,-0.5164,-0.5155,-0.517,-0.514,-0.5135,-0.5056,-0.5057,-0.5036,-0.503,-0.5015,-0.4993,-0.4993,-0.495,-0.495,0,0,0,-0.5203,-0.5215,-0.5186,-0.5159,-0.5143,-0.5138,-0.5131,-0.506,-0.5049,-0.5029,-0.5014,-0.4993,-0.4992,-0.495,-0.495,-0.4983,0,0,0,-0.5206,-0.5226,-0.5188,-0.5204,-0.5145,-0.5101,-0.5138,-0.5054,-0.5044,-0.5014,-0.4993,-0.4991,-0.4949,-0.495,-0.4981,-0.4993,0,0,0,-0.5225,-0.5228,-0.5219,-0.5205,-0.5169,-0.5101,-0.5085,-0.5051,-0.5035,-0.4994,-0.4991,-0.4949,-0.495,-0.498,-0.4991,-0.499,0,0,0,-0.5254,-0.5247,-0.522,-0.5206,-0.517,-0.5123,-0.5085,-0.5048,-0.5017,-0.4992,-0.4949,-0.495,-0.498,-0.499,-0.4989,-0.4993,-0.4998,0,0,-0.5261,-0.5249,-0.5239,-0.5212,-0.5177,-0.5134,-0.5103,-0.5048,-0.5019,-0.4974,-0.4973,-0.4982,-0.4991,-0.499,-0.5015,-0.5019,0,0,0,-0.5251,-0.5244,-0.5229,-0.5201,-0.5161,-0.5127,-0.5074,-0.5054,-0.5015,-0.5002,-0.498,-0.4985,-0.4983,-0.4984,-0.4987,-0.4984,-0.4952,-0.4952,-0.4952,-0.5297,-0.5262,-0.5244,-0.5199,-0.5173,-0.512,-0.5095,-0.5059,-0.5029,-0.5025,-0.5011,-0.5031,-0.5033,-0.5036,-0.5033,-0.5011,-0.5011,-0.5011,-0.5011,-0.5303,-0.5288,-0.5252,-0.5221,-0.5184,-0.5157,-0.5106,-0.5087,-0.5056,-0.5038,-0.5035,-0.5018,-0.5041,-0.5036,-0.5013,-0.5013,-0.5013,-0.5013,-0.5012,-0.5329,-0.5316,-0.5294,-0.5252,-0.5223,-0.5177,-0.515,-0.5117,-0.5085,-0.5082,-0.5064,-0.5063,-0.5058,-0.5076,-0.5076,-0.5076,-0.5076,-0.5076,-0.5076,-0.5365,-0.5339,-0.532,-0.5279,-0.5258,-0.5226,-0.5174,-0.5152,-0.5118,-0.5096,-0.5096,-0.5067,-0.505,-0.5047,-0.5077,-0.5077,-0.5077,-0.5077,-0.5077,-0.5383,-0.5374,-0.5347,-0.5326,-0.5274,-0.5249,-0.5208,-0.5166,-0.5143,-0.5131,-0.5103,-0.5097,-0.5082,-0.5079,-0.5075,-0.5111,-0.5111,-0.5111,-0.5111,-0.5405,-0.5395,-0.536,-0.5329,-0.5295,-0.5256,-0.5225,-0.5185,-0.5142,-0.5126,-0.5116,-0.5109,-0.5108,-0.5094,-0.509,-0.5087,-0.5125,-0.5125,-0.5125,-0.5414,-0.54,-0.538,-0.534,-0.5298,-0.5263,-0.5233,-0.5198,-0.5148,-0.5124,-0.5112,-0.5112,-0.51,-0.5098,-0.5073,-0.5069,-0.5061,0,0]},{"header":{"parameterUnit":"m.s-1","parameterCategory":1,"la1":30.2992,"la2":30.254,"lo1":-89.0895,"lo2":-89.0443,"dy":0.0025,"dx":0.0025,"nx":19,"ny":19,"refTime":"2026-04-17T21:00:00:Z","depth":0,"parameterNumber":3,"parameterNumberName":"V-component_of_WINDS"},"data":[0,0,0,3.9727,3.9726,3.9684,3.9683,3.9625,3.9624,0,0,0,0,0,0,0,0,0,0,0,3.974,3.974,3.9727,3.9726,3.9684,3.9683,3.9625,3.9624,0,0,0,0,0,0,0,0,0,0,0,3.974,3.974,3.9739,3.9726,3.9684,3.9683,3.9625,3.9658,0,0,0,0,0,0,0,0,0,0,3.9699,3.9713,3.974,3.9739,3.9726,3.9684,3.9683,3.9659,3.9656,3.9643,0,3.9635,0,3.9629,3.9621,3.962,0,0,0,3.9725,3.9716,3.9704,3.9739,3.9725,3.9684,3.9702,3.9657,3.9653,3.9638,3.9634,3.9632,3.9628,3.962,3.962,3.956,3.956,0,0,3.9727,3.9731,3.9707,3.9702,3.9712,3.9704,3.9701,3.9655,3.9649,3.9634,3.9631,3.9627,3.962,3.9619,3.956,3.956,0,0,0,3.9735,3.9733,3.9723,3.9704,3.9697,3.9703,3.9699,3.9651,3.9648,3.963,3.9627,3.9619,3.9619,3.9561,3.956,3.9556,0,0,0,3.9736,3.9738,3.9724,3.9726,3.9698,3.9674,3.9697,3.9651,3.9646,3.9627,3.9619,3.9618,3.9561,3.9561,3.9556,3.9552,0,0,0,3.9742,3.9738,3.9733,3.9727,3.9709,3.9675,3.9669,3.965,3.9644,3.962,3.9618,3.9561,3.9561,3.9557,3.9553,3.9538,0,0,0,3.9749,3.9727,3.9733,3.9706,3.971,3.9674,3.9669,3.9641,3.9621,3.9619,3.9561,3.956,3.9557,3.9553,3.9539,3.9527,3.9522,0,0,3.9723,3.9724,3.9708,3.9712,3.9677,3.968,3.9642,3.9617,3.9609,3.9576,3.9575,3.9556,3.9553,3.9538,3.9497,3.9493,0,0,0,3.9701,3.969,3.9679,3.9662,3.9645,3.9629,3.961,3.9601,3.9574,3.9594,3.9547,3.9545,3.9536,3.953,3.9527,3.9519,3.9558,3.9558,3.9558,3.9669,3.9663,3.9636,3.9625,3.9608,3.959,3.9575,3.9559,3.9555,3.9544,3.9534,3.951,3.9503,3.9501,3.9493,3.9528,3.9528,3.9528,3.9527,3.963,3.9613,3.9612,3.9585,3.9578,3.9554,3.9536,3.9534,3.951,3.9517,3.9508,3.9517,3.9498,3.949,3.9527,3.9527,3.9527,3.9527,3.9527,3.9608,3.9599,3.9591,3.9567,3.9547,3.9536,3.9514,3.9507,3.95,3.9492,3.9481,3.9481,3.948,3.9488,3.9488,3.9487,3.9487,3.9487,3.9487,3.9589,3.958,3.9564,3.9545,3.9534,3.9518,3.95,3.9488,3.9472,3.9469,3.9468,3.9465,3.9498,3.9506,3.9486,3.9486,3.9486,3.9486,3.9487,3.955,3.9559,3.9534,3.9523,3.9501,3.9482,3.9476,3.9451,3.9439,3.9428,3.9428,3.9453,3.9452,3.9454,3.9461,3.943,3.943,3.943,3.943,3.9532,3.9532,3.9505,3.9488,3.9471,3.9463,3.9432,3.9418,3.9404,3.9396,3.94,3.9408,3.9411,3.9408,3.9411,3.9417,3.9376,3.9376,3.9376,3.9508,3.9506,3.9483,3.9473,3.9456,3.944,3.9412,3.939,3.9375,3.9374,3.939,3.9392,3.9406,3.9411,3.9408,3.9413,3.9424,0,0]}]]